GEFSSGP_con_probscp_324.txt.gz
Probability
4 3 2 2 1 0 0 0 0 0 0 0 0 0 0 0 0 0 0 0 0 0 0 1 2 3 4 4 2 2 2 1 1 0 0 1 1 0 1 1 1 0 0 0 0 1 2 2 1
3 2 3 3 1 0 0 0 0 0 0 0 0 0 0 0 0 0 0 0 0 0 0 1 2 3 4 4 2 2 2 2 2 1 1 2 2 1 1 2 1 1 1 0 0 1 2 2 1
2 3 4 3 1 0 0 0 0 0 0 0 0 0 0 0 0 0 0 0 0 0 0 1 3 4 4 4 2 1 1 2 2 2 3 3 2 2 3 3 3 3 3 2 1 1 1 1 1
4 4 3 1 0 0 0 0 0 0 0 0 0 0 0 0 0 0 0 0 0 0 0 2 5 6 6 5 4 3 2 2 2 3 4 2 1 2 3 3 3 3 3 3 3 3 3 2 2
6 5 3 1 0 0 0 1 1 2 1 0 0 0 0 0 0 0 0 0 0 0 0 2 6 7 7 7 6 5 4 4 4 4 4 3 2 2 2 2 3 3 3 3 4 5 4 4 4
10 7 3 1 0 0 1 2 3 3 2 0 0 0 0 0 1 1 0 0 0 0 0 2 5 7 7 7 7 5 4 5 6 5 5 4 4 4 4 3 3 3 3 5 6 7 6 5 4
12 8 3 0 0 0 1 2 3 3 2 1 0 0 0 1 2 1 0 0 0 0 0 1 2 4 5 5 4 3 4 5 6 6 5 5 6 6 5 5 4 3 4 7 10 10 9 7 6
8 5 1 0 0 0 1 2 2 2 2 2 1 0 0 1 2 2 1 0 0 0 0 0 0 1 1 1 1 1 2 4 5 5 5 5 5 4 4 5 5 6 7 10 12 13 13 13 12
2 1 0 1 1 0 0 1 1 1 2 3 2 1 1 1 2 2 1 0 0 0 0 0 0 0 0 0 0 0 1 3 4 5 5 3 2 1 2 3 7 10 11 13 14 14 15 16 16
0 1 1 2 2 1 1 0 0 0 2 4 4 3 3 1 1 2 1 0 0 0 0 0 0 0 0 0 0 0 1 1 2 4 4 2 1 0 0 2 6 9 11 12 13 13 13 14 13
2 2 3 4 3 2 2 1 0 0 2 4 6 6 4 1 0 0 0 0 0 0 0 1 0 0 0 0 0 1 1 0 0 2 3 3 2 1 0 1 2 4 5 6 8 9 9 8 8
2 3 3 3 3 2 2 2 1 0 1 4 6 6 4 1 0 0 0 0 0 0 1 1 1 0 0 0 0 1 0 0 0 1 1 2 2 1 1 1 1 1 2 3 4 5 5 5 4
1 1 2 3 2 1 1 1 1 1 3 4 5 5 3 1 0 0 0 0 0 1 2 3 2 1 0 1 1 1 0 0 1 1 1 1 1 1 1 2 2 2 3 3 3 4 4 4 4
0 0 1 2 1 0 0 0 0 1 3 4 4 2 1 0 0 0 1 1 1 2 3 4 4 2 1 2 3 2 1 1 1 2 1 0 1 2 3 3 3 3 3 3 3 3 3 3 3
0 0 1 1 0 0 0 0 0 0 2 3 3 2 0 0 0 1 2 2 1 1 2 3 3 2 2 3 4 4 2 1 1 1 0 0 1 2 3 3 3 3 3 3 3 3 3 3 3
0 0 0 0 0 0 0 0 0 0 0 1 2 2 0 0 0 1 2 2 1 1 2 4 4 4 4 4 4 3 1 0 0 0 1 1 2 2 2 2 3 3 3 3 3 3 3 3 2
0 0 0 0 0 0 1 1 0 0 0 1 2 1 0 0 0 0 1 2 2 2 3 5 6 6 6 5 4 2 1 1 1 1 2 3 3 2 1 1 3 3 3 3 3 3 3 3 3
0 0 0 0 0 1 2 2 1 1 1 1 2 1 0 0 0 0 1 2 3 3 3 4 5 7 7 6 5 3 2 2 2 3 3 3 4 3 2 1 3 3 3 3 3 3 3 4 4
0 0 0 0 0 1 2 2 1 1 2 3 2 1 1 1 1 2 4 5 5 4 4 5 6 8 8 8 7 5 4 4 4 3 3 3 4 4 3 3 3 3 3 3 3 3 4 4 4
0 0 0 0 0 0 1 1 0 1 2 3 3 3 3 3 4 6 9 9 8 7 6 8 11 10 9 9 8 7 6 6 5 4 3 4 5 5 4 3 3 3 3 3 3 3 3 3 3
0 0 0 0 0 0 0 0 0 0 1 2 3 3 4 6 7 9 11 12 10 9 8 10 13 13 11 10 9 8 8 7 6 5 4 4 5 4 3 3 4 4 4 4 4 3 2 2 2
0 0 0 0 0 0 0 0 0 0 0 1 3 3 4 7 8 9 12 13 12 11 10 11 14 15 13 12 12 10 8 7 6 5 5 5 4 2 1 2 4 5 5 5 4 3 2 2 2
0 0 0 0 0 0 0 0 0 0 0 1 3 3 5 7 8 9 12 14 13 13 13 14 16 17 16 16 15 12 8 6 6 6 6 5 2 0 0 1 3 4 4 4 4 3 4 5 4
0 0 0 0 0 0 0 0 0 0 1 2 3 4 5 6 7 9 11 13 14 16 18 18 19 20 19 18 16 12 8 5 6 6 5 3 1 0 0 1 2 3 3 4 4 5 6 6 6
0 0 0 0 0 0 0 0 0 0 1 3 4 5 6 6 7 10 12 14 16 19 21 21 22 22 22 20 17 13 9 7 6 5 4 3 1 0 0 1 2 3 3 4 5 6 6 6 6
0 0 0 0 0 0 0 0 0 1 3 4 5 6 7 7 8 12 15 16 17 19 21 24 26 25 25 23 19 15 11 9 7 5 5 4 2 1 2 3 4 4 4 5 5 6 5 4 4
0 0 0 0 0 0 0 0 1 3 5 6 6 7 9 9 8 10 13 16 16 15 19 25 29 29 29 28 24 19 14 11 9 9 8 7 4 4 5 6 6 6 6 6 6 6 4 3 2
0 0 0 0 0 0 0 0 1 4 7 9 8 8 9 9 8 7 10 14 15 14 18 24 28 29 31 31 27 22 17 15 14 13 11 8 7 7 8 9 9 10 9 8 7 6 5 3 3
0 0 0 0 0 0 0 0 1 5 9 9 7 7 8 8 8 9 12 15 16 14 17 21 24 25 29 29 27 24 21 19 18 17 13 11 10 9 10 11 12 12 12 10 9 9 8 7 7
0 0 0 0 0 0 0 1 2 6 8 7 6 7 8 9 10 12 16 18 17 15 16 19 21 23 26 26 25 24 22 20 19 18 15 13 12 11 12 13 13 13 12 11 11 12 12 10 11

GEFSSGP_con_probscp_330.txt.gz
Probability
0 0 0 0 0 0 0 0 0 0 0 0 0 0 0 0 0 0 1 1 2 3 1 1 2 1 0 1 2 1 0 0 0 0 0 0 0 0 0 0 0 0 0 0 0 0 0 0 0
0 0 0 0 0 0 0 0 0 0 0 0 0 0 0 0 0 0 1 1 2 2 1 1 2 1 0 2 3 2 1 0 0 0 0 0 0 0 0 0 0 0 0 0 0 0 0 0 0
0 0 0 0 0 0 0 0 0 0 0 0 0 0 0 0 0 0 0 0 1 1 1 1 2 1 0 1 2 2 1 0 0 0 0 0 0 0 0 0 0 0 0 0 0 1 0 0 0
0 0 0 0 0 0 0 0 0 0 0 0 0 0 0 0 0 0 0 0 0 0 1 2 3 1 0 0 0 1 1 0 0 0 0 0 0 0 0 0 0 0 0 0 0 0 0 0 0
0 0 0 0 0 0 0 0 0 0 0 0 0 0 0 0 0 0 0 0 0 0 1 2 3 2 1 0 0 0 0 0 1 1 1 1 0 0 0 0 0 0 0 0 0 0 0 0 1
0 0 0 0 0 0 0 1 1 1 0 0 0 0 0 0 0 0 0 0 0 0 0 1 2 2 2 1 1 0 0 0 1 2 2 1 1 1 1 1 1 1 1 1 2 3 2 2 2
0 0 0 0 0 0 0 1 2 2 1 0 0 0 0 0 0 0 0 0 0 0 0 0 1 1 2 2 1 0 0 0 1 1 1 1 2 2 2 3 3 3 4 4 5 6 6 5 5
0 0 0 0 0 0 0 1 2 3 2 1 0 0 0 0 0 0 0 0 0 0 0 0 0 0 1 1 1 0 1 1 0 0 1 2 2 2 2 3 4 5 6 7 8 8 7 6 6
0 0 0 0 0 0 0 0 2 3 2 1 0 1 1 1 1 1 0 0 0 0 0 0 0 0 0 0 0 0 1 1 0 0 1 1 1 0 1 2 3 3 4 6 7 7 6 5 5
0 0 0 0 0 1 1 1 2 3 2 1 1 2 3 2 2 1 0 0 0 0 0 0 0 0 0 0 0 0 1 1 0 0 0 0 0 0 0 1 2 2 2 3 4 4 4 3 2
0 0 0 0 0 1 1 1 1 2 2 1 2 4 4 3 1 0 0 0 0 0 0 0 0 0 0 0 0 0 0 0 0 0 0 0 0 0 0 0 1 1 1 1 1 1 1 1 1
1 1 1 1 1 1 1 0 0 1 2 3 5 6 5 2 1 0 0 0 0 0 0 0 0 0 0 0 0 0 0 0 0 0 0 0 0 0 0 0 0 0 0 0 0 0 0 0 0
1 1 2 2 1 0 0 0 0 1 3 5 6 5 3 2 1 1 1 1 0 0 0 0 0 0 0 0 0 0 0 0 0 0 0 0 0 0 0 0 0 0 0 0 0 0 0 0 1
1 1 2 1 0 0 0 0 0 2 3 5 5 2 1 1 1 1 2 2 1 1 0 0 0 0 0 0 0 0 0 0 0 0 0 0 0 0 0 0 0 0 0 0 0 0 1 1 2
0 0 0 0 0 0 0 0 0 2 3 4 3 1 0 0 0 1 1 2 2 1 0 0 0 0 0 0 0 0 0 0 0 0 0 0 0 0 0 0 0 0 0 0 0 1 2 3 3
0 0 0 0 0 0 0 0 0 1 2 3 2 1 0 0 0 0 0 1 1 1 0 0 0 0 0 0 0 0 0 0 0 0 0 0 0 0 0 0 0 1 0 0 1 2 3 3 3
0 0 0 0 0 0 0 0 0 1 1 2 1 0 0 0 0 0 0 0 1 1 1 1 0 0 0 0 0 0 0 0 0 0 0 0 0 0 0 0 0 0 0 0 1 2 3 3 3
0 0 0 0 0 0 0 0 0 0 0 0 0 0 0 0 0 0 0 1 2 2 2 2 1 0 0 0 0 0 0 0 0 0 0 0 0 1 1 1 1 1 1 1 1 3 3 3 3
0 0 0 0 0 0 0 0 0 0 0 0 0 0 0 0 0 0 1 2 3 3 3 2 1 0 0 0 0 0 0 0 0 0 0 0 1 2 2 2 2 2 2 2 3 3 3 3 2
0 0 0 0 0 0 0 0 0 0 0 0 0 0 0 0 0 1 2 4 5 4 3 2 1 1 1 1 0 0 0 0 1 1 1 1 1 2 2 3 3 3 3 3 3 3 2 2 1
0 0 0 0 0 0 0 0 0 0 0 0 0 0 0 0 0 1 3 4 5 5 4 3 3 3 3 2 1 0 1 1 2 2 2 2 3 3 2 2 2 2 2 2 2 2 2 2 1
0 0 0 0 0 0 0 0 0 0 0 0 0 0 0 0 0 1 4 5 5 5 5 5 4 4 3 3 2 1 2 2 3 3 3 3 2 2 1 1 1 1 1 1 1 1 2 3 3
0 0 0 0 0 0 0 0 0 0 0 0 0 0 0 0 0 2 5 6 7 8 8 6 4 3 2 3 3 3 2 3 3 3 3 1 1 1 0 0 0 0 0 0 1 3 4 4 4
0 0 0 0 0 0 0 0 0 0 0 0 0 1 1 0 0 2 4 6 7 8 8 6 2 1 1 2 4 5 4 3 3 3 2 1 0 0 1 1 1 0 1 1 2 4 5 5 5
0 0 0 0 0 0 0 0 0 0 0 0 1 2 2 1 0 1 2 4 4 4 4 3 1 1 2 2 4 6 5 4 4 4 3 2 1 1 1 2 2 2 3 3 3 3 4 4 5
0 0 0 0 0 0 0 0 0 1 1 1 3 4 3 2 1 1 2 2 1 1 1 1 1 2 3 4 5 6 6 6 7 7 6 4 3 3 3 4 5 6 7 7 6 6 5 4 3
0 0 0 0 0 0 0 0 1 2 2 3 4 5 4 3 2 2 2 1 0 0 1 2 3 5 6 6 7 7 7 8 9 10 10 8 5 5 6 6 8 10 11 11 11 10 8 5 3
0 0 0 0 0 0 0 0 1 2 3 3 4 5 4 3 3 2 1 0 1 1 3 5 7 8 9 9 10 10 8 8 8 10 11 11 8 7 8 9 11 12 12 12 11 11 9 6 5
0 0 0 0 0 0 0 0 1 2 3 3 3 3 3 3 2 1 0 1 2 3 4 7 9 10 10 10 12 12 9 7 8 9 10 10 9 9 9 10 11 10 9 9 8 8 7 6 5
0 0 0 0 0 0 0 0 0 1 2 2 2 3 3 3 1 0 1 2 3 3 5 9 10 10 10 11 12 12 9 8 9 10 10 9 9 9 9 9 9 8 6 6 6 6 6 6 6

GEFSSGP_con_probscp_336.txt.gz
Probability
3 5 8 10 7 2 0 0 0 0 0 0 0 0 0 0 0 0 0 0 0 0 0 0 0 1 1 1 1 0 0 0 0 0 0 1 2 3 3 2 1 0 0 0 0 0 0 0 0
3 5 8 8 4 1 0 0 0 0 0 0 0 0 0 0 0 0 0 0 0 0 0 0 0 0 0 1 1 0 0 0 0 0 0 1 2 3 3 2 1 0 0 0 0 0 0 0 0
6 8 8 5 2 0 0 0 0 0 0 0 0 0 0 0 0 0 0 0 0 0 0 0 0 0 0 0 0 0 0 0 0 0 0 1 2 3 3 3 1 0 0 0 0 0 0 0 0
11 12 9 4 1 0 0 0 0 0 0 0 0 0 0 0 0 0 0 0 0 0 0 1 1 1 0 0 0 0 0 0 0 0 0 0 1 2 2 2 2 1 0 0 0 0 0 0 0
15 12 7 2 0 0 0 0 0 0 0 0 0 0 0 0 0 0 0 0 0 0 0 1 2 2 1 0 0 0 0 0 0 0 0 0 0 1 1 1 1 1 0 0 0 0 0 0 0
12 8 3 0 0 0 0 0 0 0 0 0 0 0 0 0 0 0 0 0 0 0 0 0 1 2 2 1 0 0 0 0 0 0 0 0 0 1 1 1 1 1 1 1 1 1 1 1 1
6 3 0 0 0 0 0 0 0 0 0 0 0 0 0 0 0 0 0 0 0 0 0 0 0 1 1 1 1 0 0 0 0 0 0 0 1 2 2 3 3 3 3 3 3 2 2 2 2
4 2 0 0 0 0 0 0 0 0 0 0 0 0 0 0 0 0 0 0 0 0 0 0 0 0 1 2 1 0 0 0 1 1 1 1 2 2 3 3 4 3 4 4 4 3 3 4 4
4 1 0 0 0 0 0 0 0 0 0 0 0 0 1 1 1 0 0 0 0 0 0 0 0 0 1 2 1 0 0 0 1 2 2 2 2 1 1 2 3 2 3 3 3 3 4 4 4
2 1 0 0 0 0 0 0 0 0 0 0 0 1 2 2 1 0 0 1 1 0 0 0 0 0 1 1 0 0 0 0 1 1 1 1 1 1 1 2 2 1 1 1 2 3 3 3 3
0 0 0 0 0 0 0 0 0 1 1 0 0 1 3 2 0 0 1 2 2 1 0 0 0 0 0 0 0 0 0 0 0 0 0 0 1 2 3 3 2 1 1 1 1 2 2 2 2
0 0 0 0 0 0 0 0 0 1 1 0 1 3 4 2 0 1 2 3 3 2 1 0 0 1 1 1 0 0 0 0 0 0 0 0 2 3 3 2 1 1 1 1 1 1 2 2 2
0 0 0 0 0 0 0 0 0 1 1 0 1 3 3 2 0 1 2 3 3 2 1 0 0 1 2 1 0 0 0 0 0 0 0 0 1 2 2 1 0 1 1 1 1 2 3 3 3
0 0 0 0 0 0 0 0 0 0 0 0 1 2 1 0 0 1 2 3 3 3 1 1 0 1 1 1 0 0 0 0 0 0 0 0 1 3 3 1 1 2 2 2 2 3 3 3 3
0 0 0 0 0 0 1 1 0 0 0 0 0 0 0 0 0 0 1 2 3 3 2 1 0 0 0 0 0 0 1 1 1 1 1 1 2 3 3 2 2 3 4 4 3 3 2 3 3
0 0 0 0 0 0 0 1 1 1 0 0 0 0 0 0 0 0 0 0 1 1 1 1 0 0 0 0 0 1 2 3 3 4 3 2 2 2 2 2 3 4 5 5 4 2 1 1 2
0 0 0 0 0 0 0 1 1 1 1 1 0 0 0 0 0 0 0 0 0 1 1 0 0 0 0 1 1 1 3 4 5 5 4 2 2 2 3 3 4 6 6 6 4 2 1 1 1
0 0 0 0 0 0 0 0 0 1 1 1 0 0 0 0 0 0 0 0 1 3 3 2 1 1 1 2 2 3 4 5 5 5 3 3 3 3 3 3 4 5 6 5 3 3 3 2 2
0 0 0 0 0 0 0 0 0 1 1 0 0 0 0 0 0 0 0 1 3 5 6 6 4 3 3 3 4 4 4 4 4 4 4 3 3 3 3 3 4 5 5 3 1 2 3 3 2
0 0 0 0 0 0 0 0 0 1 1 1 0 0 0 0 0 0 0 1 3 5 7 9 8 6 5 5 6 6 4 3 4 5 5 4 4 3 3 3 3 4 4 1 1 1 1 2 2
0 0 0 0 0 0 0 0 1 1 2 2 1 0 0 0 0 0 1 1 1 3 7 10 10 9 10 10 9 7 6 6 7 7 7 6 5 4 3 3 4 5 4 2 2 1 2 3 4
0 0 0 0 0 0 0 0 1 2 2 2 1 0 0 0 1 2 3 2 1 2 6 11 13 14 15 15 12 10 9 9 9 9 9 7 5 4 3 4 6 7 6 4 3 3 5 7 7
0 0 0 0 0 0 0 0 1 2 2 1 0 0 0 2 4 5 6 5 4 4 7 13 17 19 18 17 15 12 10 9 9 8 8 7 6 4 4 5 8 9 8 6 5 4 7 9 9
0 0 0 0 0 0 0 0 0 2 2 1 0 1 1 3 5 7 8 9 8 8 10 14 19 22 20 18 16 13 11 10 9 8 7 7 6 5 4 5 7 9 9 8 8 7 7 7 7
0 0 0 0 0 0 0 0 1 2 2 1 0 2 3 4 6 7 9 10 11 11 11 13 17 20 19 18 17 16 15 13 12 10 9 8 8 7 7 8 10 10 10 9 9 9 6 6 6
0 0 0 0 0 0 0 0 1 3 3 1 1 3 5 6 7 8 8 9 10 11 10 10 13 16 17 17 17 18 17 16 15 14 12 11 11 11 12 13 14 13 11 10 10 10 9 9 10
0 0 0 0 0 0 0 0 2 3 3 3 3 4 5 7 8 7 7 7 8 9 8 8 10 13 13 14 15 15 15 16 16 15 13 12 14 14 14 15 15 13 13 13 13 12 12 13 15
0 0 0 0 0 0 0 0 1 3 3 4 3 3 5 7 8 7 7 7 7 6 6 6 8 10 10 11 11 10 12 14 15 14 13 12 13 15 16 15 14 14 16 17 17 15 14 15 17
0 0 0 0 0 0 0 0 1 2 4 4 4 3 4 6 8 8 9 8 7 6 5 5 7 10 12 11 11 10 9 11 12 13 13 13 14 16 17 16 15 17 19 19 19 18 16 15 16
0 0 0 0 0 0 0 1 1 2 4 5 4 3 4 6 7 9 11 10 7 6 5 5 7 12 15 15 13 12 10 10 11 12 12 14 16 16 18 17 16 18 20 21 21 19 17 16 16

GEFSSGP_con_probscp_342.txt.gz
Probability
5 8 17 26 21 8 1 0 0 0 0 0 0 0 0 0 0 0 0 0 0 1 2 3 2 1 0 0 0 0 0 0 0 0 0 0 0 2 3 3 2 1 0 0 0 0 0 1 2
6 12 22 26 18 6 0 0 0 0 0 0 0 0 0 0 0 0 0 0 0 1 2 2 3 2 1 0 0 0 0 0 0 0 0 0 1 2 3 2 1 0 0 0 0 0 0 1 2
12 20 27 23 11 3 0 0 0 0 0 0 0 0 0 0 0 0 0 0 0 0 1 3 4 3 1 0 0 0 0 0 1 1 0 0 1 2 3 2 1 0 0 0 0 0 0 0 1
22 29 28 15 5 1 0 0 0 0 0 0 0 0 0 0 0 0 0 0 0 0 1 4 5 3 1 1 1 1 1 1 2 2 1 1 0 1 2 2 1 0 0 0 0 0 0 0 0
30 30 22 9 1 0 0 0 0 0 0 0 0 0 0 0 0 0 0 0 0 0 2 4 4 3 2 3 3 3 3 3 3 3 3 2 1 0 1 1 0 0 0 0 0 0 0 0 0
31 26 14 4 0 0 0 0 0 0 0 0 0 0 0 0 0 0 0 0 1 0 1 4 4 4 5 5 6 6 6 5 4 3 3 2 1 0 1 1 1 0 0 0 0 0 0 0 0
27 19 8 1 0 0 0 0 0 0 0 0 0 0 0 0 0 0 0 0 0 0 1 2 3 3 4 5 5 5 5 5 4 3 3 2 2 1 2 2 2 1 1 0 1 1 1 1 1
15 11 4 0 0 0 0 0 0 0 0 0 0 0 0 0 0 0 0 0 0 0 0 1 1 1 1 2 3 3 2 2 2 2 3 4 4 3 3 2 2 2 2 2 2 3 5 6 4
4 3 1 0 0 0 0 1 1 1 1 0 1 1 2 1 0 0 0 0 0 0 0 0 0 0 0 0 1 1 0 0 0 1 4 5 4 3 2 3 4 5 6 6 6 8 10 10 9
1 1 1 0 0 0 0 1 2 3 2 2 2 3 3 2 1 0 0 0 0 0 0 0 0 0 0 0 0 0 0 0 0 1 3 5 4 3 2 4 7 10 10 10 11 13 12 11 9
1 2 1 0 0 0 0 1 2 3 4 4 5 5 5 3 2 1 1 1 1 1 0 1 1 1 0 0 1 2 1 0 1 1 2 4 4 3 1 3 7 10 11 11 13 14 11 9 8
0 1 1 0 0 0 0 0 1 2 4 5 6 6 6 4 2 2 2 2 3 2 2 2 3 2 1 1 2 3 3 2 2 2 2 3 4 3 1 2 4 6 9 11 11 11 10 7 7
0 0 0 0 0 0 0 0 1 2 2 4 5 6 5 4 3 3 4 4 5 5 4 4 5 5 3 2 2 2 3 4 4 3 3 4 5 4 3 2 3 4 7 9 8 7 7 6 5
0 0 0 0 0 0 0 0 1 2 2 2 4 4 4 4 3 4 5 7 7 7 7 6 6 6 6 4 2 2 2 4 5 5 6 7 7 8 7 4 3 5 6 8 7 5 5 5 6
0 0 0 0 0 0 0 2 3 4 3 2 3 3 4 5 4 4 5 7 8 9 10 8 5 5 6 5 3 2 2 3 4 5 8 10 10 11 10 6 4 5 8 9 7 5 4 5 6
0 0 0 0 0 0 1 4 5 6 5 4 3 3 4 5 5 4 5 7 10 13 15 10 6 6 6 5 4 2 1 2 3 5 8 10 10 11 11 7 6 7 9 10 8 7 5 5 6
0 0 0 0 0 0 2 4 6 6 6 5 4 4 4 6 5 4 5 8 12 17 19 17 12 10 9 7 6 4 2 4 5 6 8 9 10 12 11 10 9 10 10 10 9 9 8 8 7
0 0 0 0 0 0 1 4 6 6 6 6 5 5 6 6 5 5 5 7 12 19 25 24 20 18 15 13 12 10 9 10 10 10 11 11 11 12 12 11 12 12 12 11 9 9 10 11 10
0 0 0 0 0 0 1 3 4 5 6 7 7 7 7 6 6 8 8 8 12 21 28 29 26 25 23 22 21 19 17 16 15 15 17 17 16 14 12 12 14 14 12 11 10 9 10 11 12
0 0 0 0 1 0 0 2 3 5 7 9 10 10 7 5 8 13 14 12 15 24 30 30 30 31 32 30 27 23 21 21 20 20 23 24 21 16 13 13 13 13 12 12 13 13 12 11 11
0 0 0 0 0 0 0 2 5 6 7 11 13 12 8 5 8 13 14 13 16 25 31 33 36 38 39 35 30 26 25 25 24 24 25 26 23 18 15 14 13 12 14 15 15 16 15 13 11
0 0 0 0 0 1 1 2 6 8 9 12 13 12 9 6 7 10 12 11 14 22 31 37 42 43 41 37 32 28 26 26 26 26 25 25 25 22 17 15 14 14 17 19 18 17 17 15 13
0 0 0 0 0 1 1 2 5 8 10 11 10 9 7 6 7 10 12 12 13 18 27 36 42 43 40 36 32 30 27 25 25 24 23 24 24 23 20 19 19 18 19 21 21 19 18 16 14
0 0 0 0 0 1 1 1 3 6 8 8 8 7 7 7 9 13 17 18 16 18 26 35 41 43 40 34 31 30 28 25 24 22 21 22 21 22 23 25 26 24 21 22 22 21 18 16 14
0 0 0 0 0 0 0 1 2 4 5 5 7 7 6 7 10 16 21 22 19 21 28 37 44 45 39 32 29 29 26 23 22 21 20 20 19 21 26 29 31 28 24 24 24 22 20 16 15
0 0 0 0 0 0 1 2 3 4 4 5 7 6 6 8 12 17 19 20 19 20 27 37 45 46 38 30 27 27 24 21 19 20 20 19 18 20 25 29 30 29 27 25 25 24 21 19 19
0 0 0 0 0 0 1 3 4 4 4 5 6 5 6 10 15 16 16 17 18 21 25 33 41 43 37 31 28 26 25 23 21 23 23 21 18 18 23 27 28 28 27 26 25 23 22 23 25
0 0 0 0 0 0 2 4 3 3 2 3 4 5 9 14 16 16 16 16 18 22 25 29 35 37 36 31 27 25 27 27 27 28 27 23 19 20 23 26 27 26 26 27 25 23 22 26 29
0 0 0 0 0 0 1 2 3 3 2 2 5 9 13 15 16 16 16 16 17 20 25 29 32 34 35 32 28 29 31 32 32 31 29 25 22 23 25 25 25 26 27 29 28 25 23 26 29
0 0 0 0 0 0 1 2 3 4 2 2 7 12 15 15 15 16 17 15 15 18 24 29 30 33 36 34 34 35 36 35 33 32 30 27 25 25 24 23 24 27 29 31 31 27 24 26 29

GEFSSGP_con_probscp_348.txt.gz
Probability
10 6 1 0 0 0 0 0 0 0 0 0 0 0 0 0 0 0 0 0 0 0 0 0 0 0 1 2 2 1 1 2 2 2 1 1 1 0 0 0 0 0 0 0 0 1 0 0 0
5 4 2 2 1 0 0 0 0 0 0 0 0 0 0 0 0 0 0 0 0 0 0 0 0 0 0 1 1 1 0 1 2 2 2 1 0 0 0 1 1 0 0 0 1 1 1 1 0
3 4 5 5 4 2 0 0 0 0 0 0 0 0 0 0 0 0 0 0 0 0 0 0 0 0 0 0 1 1 0 0 1 3 2 1 0 0 1 2 2 1 0 0 1 2 2 1 1
5 6 6 5 4 2 0 0 0 0 0 0 0 0 0 0 0 0 0 0 0 0 0 1 1 1 1 0 2 3 2 0 1 2 2 1 1 1 1 2 3 2 1 1 1 2 2 1 1
8 7 4 2 2 1 0 0 0 0 0 0 0 0 0 0 1 1 1 0 0 0 0 1 2 3 2 1 3 4 3 1 1 1 2 2 2 3 2 2 3 3 3 3 4 3 3 3 2
12 8 4 2 0 0 0 1 1 1 0 0 0 0 0 1 2 2 1 0 0 0 0 1 2 4 4 3 3 3 3 3 3 2 3 4 4 4 5 5 5 5 5 6 6 6 6 7 7
14 10 5 2 0 0 1 2 2 1 0 0 1 0 0 1 3 3 2 0 0 0 0 0 1 3 3 3 2 2 2 3 4 4 5 5 5 6 7 8 8 8 8 7 7 7 7 8 10
12 8 3 1 0 0 1 2 2 2 1 1 1 1 2 3 3 3 2 1 0 0 0 0 0 1 1 1 1 1 1 2 4 5 5 6 6 6 7 8 9 10 10 9 7 7 8 9 11
8 5 1 0 0 1 1 1 2 2 2 1 1 2 4 5 4 3 3 1 0 0 0 0 0 0 0 0 0 0 0 1 2 3 5 5 4 4 5 7 10 13 13 12 10 10 10 11 11
5 3 1 0 1 2 3 2 1 2 2 2 3 5 6 5 4 3 3 2 1 0 0 0 0 0 0 0 0 0 0 0 1 1 3 3 1 2 3 5 9 12 13 12 11 11 12 10 8
3 2 1 0 1 3 3 2 1 1 1 2 4 7 8 6 4 3 3 2 1 0 0 0 0 0 0 0 0 0 0 0 0 0 1 1 0 0 1 2 4 7 8 7 6 7 8 6 4
1 1 1 0 0 1 1 1 1 1 1 2 5 8 8 6 4 3 3 1 0 0 0 0 0 0 0 0 0 0 0 0 0 0 0 0 0 0 0 0 1 2 3 2 1 2 3 3 2
0 0 0 0 0 0 0 1 1 2 2 4 7 8 7 6 4 3 2 1 0 0 0 0 0 0 0 0 0 0 0 0 0 0 0 0 0 0 0 0 1 1 1 1 0 1 1 1 1
0 0 0 0 0 0 0 1 2 3 4 7 8 7 6 5 4 3 2 1 0 1 2 2 1 1 0 0 0 0 0 0 0 0 0 0 0 0 0 0 1 1 1 0 0 1 0 1 2
0 0 0 0 0 0 0 1 3 5 6 7 8 6 5 4 4 4 3 1 1 3 6 6 4 3 1 0 0 0 0 0 0 0 0 0 0 0 0 0 0 0 0 0 1 1 1 1 2
0 0 0 0 0 0 1 2 4 6 8 8 8 6 5 4 5 5 4 2 2 5 7 8 7 5 3 1 1 0 0 0 0 0 0 0 0 0 0 0 0 1 1 2 3 3 2 2 2
0 0 0 0 0 0 1 3 6 8 10 9 8 7 6 6 6 6 5 4 4 4 5 6 7 6 4 2 2 2 1 1 1 0 0 0 1 1 0 0 1 2 2 3 3 3 3 3 3
0 0 0 0 0 0 1 3 6 9 9 8 6 6 6 7 7 6 7 7 6 3 3 4 5 6 6 4 4 4 3 2 2 1 0 0 1 2 2 2 3 3 3 3 3 3 3 3 3
0 0 0 0 0 0 1 2 5 6 6 4 5 6 7 8 7 6 7 9 9 6 4 5 7 8 8 7 6 5 4 4 3 2 0 0 1 2 4 5 5 4 3 3 3 3 3 3 2
0 0 0 0 0 1 1 1 3 4 2 2 5 7 8 8 7 6 6 9 11 12 10 10 11 12 11 8 6 5 5 5 3 2 2 1 1 2 4 5 5 4 3 4 3 3 3 3 2
0 0 0 1 1 1 1 0 1 3 2 2 5 8 9 8 8 8 8 9 12 15 16 17 17 17 15 12 9 8 7 6 4 4 4 3 2 3 4 4 4 4 4 5 4 3 3 4 5
0 0 0 1 1 1 1 0 1 3 4 4 6 9 10 9 10 11 12 12 14 17 19 20 20 18 17 16 15 13 10 8 7 6 6 4 3 4 5 5 5 5 5 6 5 4 4 6 8
0 0 0 1 1 0 0 0 2 4 6 6 6 8 10 11 12 13 15 16 17 20 21 20 19 17 16 18 19 17 13 11 10 8 7 5 4 5 5 5 6 6 6 7 6 5 5 7 9
0 0 0 0 0 0 0 0 1 4 7 8 8 7 8 10 11 13 15 17 18 20 20 17 15 14 13 15 18 16 13 12 11 10 9 7 5 4 4 5 6 6 7 7 7 6 5 6 8
0 0 0 0 0 0 0 0 0 3 7 9 9 6 6 7 8 9 12 13 14 15 15 14 12 11 11 11 12 12 11 10 10 10 10 8 6 5 5 5 6 6 7 7 8 8 7 7 8
0 0 0 0 0 0 0 1 1 3 6 8 7 5 4 5 6 7 9 9 10 11 12 12 11 11 11 9 8 9 10 10 10 10 10 8 7 7 8 7 7 7 7 8 10 10 9 9 10
0 0 0 0 0 0 1 2 3 5 7 8 7 5 4 5 8 9 8 8 9 10 12 13 13 13 12 10 8 8 9 9 9 10 10 9 8 9 11 10 8 8 9 11 12 12 11 11 10
0 0 0 0 0 0 1 2 4 7 9 9 8 6 4 5 9 12 11 9 9 11 13 15 15 14 12 10 8 8 8 8 8 9 10 10 11 11 12 12 10 10 11 12 12 12 11 10 10
0 0 0 0 0 0 0 1 3 6 8 8 7 7 5 4 7 12 13 11 10 11 12 15 16 14 11 9 7 7 8 8 8 8 9 11 12 13 13 13 12 13 14 13 11 11 10 10 9
0 0 0 0 0 0 0 0 1 4 6 6 7 7 6 4 5 11 14 13 12 11 12 15 16 14 11 9 8 8 9 9 9 9 9 11 13 14 14 13 13 15 16 13 11 10 9 9 9